SL-14 R/B, 18340

Orbit data source: Space-Track

SL-14 R/B, 18340 is space debris in LEO originally from a launch on Mon, 07 Sep 1987 UTC launched from the Plesetsk Missile And Space Complex (PKMTR). Debris objects in space refer to the collection of defunct objects orbiting the Earth. Examples of debris include non-operational satellites, rocket bodies, and fragments generated from explosions, collisions, or faulty payload assembly.

Loading next visibility...
Identifier
18340, 1987-074G
Orbit
LEO
Country
Flag of CISCIS
Related business
Manufacturer
Yuzhnoe
Mission
Spacecraft
Bus & Motor
S5M, Unknown motor
Mass
1,600 kg wet, 1,600 kg dry
Launch date (UTC)
1987-09-07 (38 years ago)
Launch vehicle
Unknown
Launch site
Plesetsk Missile And Space Complex (PKMTR)
Object type
Payload
Rocket body
Debris
Shape & HBR
Cyl, 1.4 m
Radar Cross Section
7.351 m², Large (>1 m²)

Expand to show TLE details & history
Last TLE update: 9 hours ago

TLE from 9 hours ago
0 SL-14 R/B
1 18340U 87074G   26061.77118512  .00000002  00000-0 -51692-4 0  9999
2 18340  82.5720 143.6966 0040704  85.9929  32.8548 12.55577877763655
Epoch: 2026-03-02T18:30Z
TLE epoch observation values (Epoch: 2026-03-02T18:30:30.394Z)
Latitude
60.13382°
Longitude
-127.54667°
Altitude
1,424.733 km
Speed
7.166 km/s
True Right ascension
20h 42m 33s
True Declination
59° 59' 52"
Sunlit
Object was in daylight at epoch
Visualization orbit readout
Latitude
Unknown
Longitude
Unknown
Altitude
Unknown
Speed
Unknown
Apparent Right ascension
Unknown
Apparent Declination
Unknown
Sunlit
N/A
Visualization observer readout
Local Sidereal Time
07:10:41
Azimuth
Unknown
Elevation
Unknown
Doppler factor
Unknown
Orbital elements
Apogee altitude
1,470.398 km
Perigee altitude
1,406.764 km
Semi-major axis
7,816.718 km
Eccentricity
0.00407
Inclination
82.572°
RAAN
143.6966°
Arg. of periapsis
85.9929°
True anomaly
33.10893°
Mean anomaly
32.8548°
Eccentric anomaly
32.98176°
Mean motion
3.14056 °/min
Orbital period
114.63 mins
BSTAR
-0.000051692
Loading maneuver chart data...
Computing Atmospheric mass density...
Loading historical data...
Loading historical data...
Loading historical data...
Loading historical data...
Loading historical data...
Loading historical data...
Loading historical data...

Documentation

Showing up to 5 results
|